Location: Kera�l
(48.2740°N, 4.4227°W)
Time: 16:22:15
(UTC+00:00)

Daily predictions for brighter satellites

Satellite Brightness Start Highest point End
(mag) Time Altitude Azimuth Time Altitude Azimuth Time Altitude Azimuth
Meteor 1-10 Rocket 4.2 18:12:04 10° N 18:17:43 79° ENE 18:23:16 10° SSE
Cosmos 2369 Rocket 2.8 18:13:17 10° S 18:18:24 37° ESE 18:23:36 10° NE
YAOGAN 1 2.8 18:14:47 10° SE 18:18:55 46° ENE 18:23:04 10° N
STARLINK-31 3.6 18:14:55 10° SW 18:18:55 72° SSE 18:22:57 10° ENE
STARLINK-69 3.6 18:16:43 10° WSW 18:20:44 78° SSE 18:24:46 10° ENE
Cosmos 2285 Rocket 4.4 18:15:03 10° NNW 18:21:06 43° ENE 18:27:09 10° SE
STARLINK-21 3.6 18:18:13 10° SW 18:22:14 76° SSE 18:26:15 10° ENE
SL-27 R/B 2.3 18:19:03 10° NNW 18:22:23 61° ENE 18:25:39 10° SSE
Cosmos 1802 Rocket 4.2 18:16:33 10° S 18:22:51 88° W 18:29:18 10° N
Cosmos 1633 Rocket 3.4 18:19:09 10° SSE 18:23:14 42° E 18:27:21 10° NNE
STARLINK-1010 3.1 18:20:06 10° SW 18:23:17 62° SSE 18:26:30 10° ENE
Tsikada Rocket 4.1 18:17:39 10° N 18:24:02 68° ENE 18:30:25 10° SSE
STARLINK-45 3.5 18:20:04 10° WSW 18:24:06 83° SSE 18:28:08 10° ENE
CZ-2D R/B 3.7 18:21:30 10° SE 18:25:10 41° ENE 18:28:51 10° N
STARLINK-70 3.6 18:21:38 10° WSW 18:25:39 82° SSE 18:29:42 10° ENE
Cosmos 1862 3.2 18:22:25 10° S 18:26:23 70° E 18:30:21 10° NNE
SKYMED 2 3.6 18:22:04 10° NNE 18:26:26 68° ESE 18:30:45 10° S
USA 234 4.0 18:20:26 10° ENE 18:26:29 42° N 18:32:33 10° WNW
STARLINK-76 3.6 18:23:10 10° WSW 18:27:11 81° SSE 18:31:14 10° ENE
STARLINK-23 3.5 18:24:50 10° WSW 18:28:51 83° SSE 18:32:54 10° ENE
Cosmos 1666 Rocket 3.6 18:25:30 10° S 18:29:54 61° E 18:34:21 10° NNE
Cosmos 1238 Rocket 4.2 18:23:29 10° S 18:29:56 85° W 18:36:39 10° N
STARLINK-29 3.1 18:26:42 10° WNW 18:30:06 72° NNE 18:33:30 10° ESE
STARLINK-32 3.5 18:26:29 10° WSW 18:30:31 84° SSE 18:34:33 10° ENE
USA 229 DEB 3.7 18:25:15 10° SSW 18:31:45 71° SE 18:38:38 10° NE
USA 229 3.7 18:25:22 10° SSW 18:31:52 71° SE 18:38:42 10° NE
STARLINK-40 3.5 18:28:07 10° WSW 18:32:09 86° SSE 18:36:12 10° ENE
STARLINK-44 3.5 18:29:46 10° WSW 18:33:48 88° SSE 18:37:51 10° ENE
Cosmos 44 3.1 18:29:48 10° NNW 18:34:10 63° NE 18:38:39 10° SE
STARLINK-37 3.5 18:31:33 10° WSW 18:35:35 88° NNW 18:39:38 10° ENE
STARLINK-64 3.4 18:32:12 10° WSW 18:35:47 69° NNW 18:39:22 10° ENE
STARLINK-1029 3.1 18:33:08 10° SW 18:36:15 60° SSE 18:39:10 12° ENE
Cosmos 2016 Rocket 4.1 18:30:23 10° S 18:36:29 84° W 18:42:40 10° N
STARLINK-36 3.5 18:33:05 10° WSW 18:37:07 89° NW 18:41:07 10° ENE
STARLINK-75 3.5 18:33:53 10° WSW 18:37:15 59° NNW 18:40:35 10° ENE
STARLINK-1016 2.9 18:34:03 10° WSW 18:37:18 78° SSE 18:40:22 11° ENE
STARLINK-1008 3.0 18:34:03 10° WSW 18:37:20 79° SSE 18:40:27 11° ENE
STARLINK-68 3.6 18:34:56 10° WSW 18:38:58 83° NNW 18:42:53 11° ENE
NOSS 3-1 (A) 3.5 18:33:43 10° SSW 18:39:00 51° ESE 18:45:08 10° NE
Cosmos 1346 Rocket 3.8 18:36:04 10° SSE 18:39:24 26° E 18:42:42 10° NE
STARLINK-22 3.3 18:36:21 10° WSW 18:39:42 66° NNW 18:42:54 11° ENE
STARLINK-1033 4.5 18:36:04 10° SSW 18:39:48 34° SE 18:43:07 12° ENE
STARLINK-1025 2.9 18:37:06 10° WSW 18:40:23 82° SSE 18:43:21 12° ENE
STARLINK-1035 4.4 18:36:32 10° SSW 18:40:28 38° SE 18:44:01 12° ENE
STARLINK-63 3.6 18:36:30 10° WSW 18:40:31 84° NNW 18:44:23 11° ENE
STARLINK-41 3.4 18:37:51 10° WSW 18:41:11 62° NNW 18:44:18 12° ENE
FALCON 9 DEB 3.1 18:38:02 10° WNW 18:41:30 87° SSW 18:44:57 10° ESE
STARLINK-1017 2.9 18:38:37 10° WSW 18:41:54 84° SSE 18:44:49 13° ENE
STARLINK-61 3.8 18:38:02 10° W 18:41:54 60° NNW 18:45:35 11° ENE
STARLINK-35 3.6 18:38:02 10° WSW 18:42:04 84° NNW 18:45:52 12° ENE
STARLINK-52 3.0 18:38:53 10° WNW 18:42:17 78° NNE 18:45:24 12° ESE
Ariane Rocket 3.6 18:38:00 10° SE 18:42:35 35° ENE 18:47:12 10° N
STARLINK-48 4.3 18:39:15 10° W 18:42:59 43° N 18:46:26 12° ENE
USA 116 4.0 18:39:19 10° NNE 18:43:13 55° ESE 18:47:36 10° S
STARLINK-51 3.6 18:39:43 10° WSW 18:43:45 83° NNW 18:47:29 12° ENE
STARLINK-26 4.1 18:40:39 10° W 18:43:56 39° N 18:46:54 12° ENE
ARGOS 4.2 18:40:55 10° ESE 18:45:13 25° ENE 18:49:34 10° N
STARLINK-30 3.6 18:41:23 10° WSW 18:45:25 81° NNW 18:49:04 12° ENE
CSL-04 Rocket 3.7 18:41:00 10° SSE 18:46:31 78° ENE 18:52:01 10° NNW
STARLINK-1048 3.0 18:43:15 10° WSW 18:46:32 89° SSW 18:49:18 14° ENE
STARLINK 1040 2.7 18:43:49 10° WSW 18:46:38 74° NNW 18:48:51 15° ENE
STARLINK-72 3.6 18:43:01 10° WSW 18:47:03 80° NNW 18:50:38 13° ENE
CENTAUR R/B 4.3 18:41:30 10° NW 18:47:25 26° N 18:54:00 10° ENE
STARLINK-60 4.0 18:44:53 10° WNW 18:48:03 45° SW 18:51:13 10° SE
STARLINK-1049 3.0 18:44:49 10° WSW 18:48:07 89° NNW 18:50:48 15° ENE
STARLINK-50 3.6 18:44:40 10° WSW 18:48:43 78° NNW 18:52:14 13° ENE
STARLINK-1024 4.2 18:45:50 10° SSW 18:49:41 39° SE 18:52:41 15° ENE
STARLINK-1051 3.0 18:46:26 10° WSW 18:49:43 87° NNW 18:52:21 15° ENE
STARLINK-1028 3.0 18:46:26 10° WSW 18:49:44 86° NNW 18:52:22 15° ENE
STARLINK-59 3.6 18:46:26 10° WSW 18:50:28 75° NNW 18:53:56 14° ENE
STARLINK-1027 4.1 18:46:57 10° SW 18:51:03 47° SE 18:54:16 15° ENE
STARLINK-1021 3.0 18:48:04 10° WSW 18:51:22 84° NNW 18:53:57 16° ENE
Cosmos 2233 Rocket 3.9 18:45:41 10° S 18:51:46 70° E 18:57:57 10° NNE
STARLINK-56 3.6 18:47:59 10° WSW 18:52:00 76° NNW 18:55:24 14° ENE
STARLINK-1014 3.1 18:48:55 10° WSW 18:52:23 83° SSE 18:55:03 16° ENE
STARLINK-1019 3.0 18:49:40 10° WSW 18:53:00 83° NNW 18:55:31 16° ENE
STARLINK-73 3.7 18:49:39 10° WSW 18:53:41 74° NNW 18:57:01 15° ENE
STARLINK-1012 3.0 18:51:24 10° WSW 18:54:41 81° NNW 18:57:09 17° ENE
STARLINK-38 3.7 18:51:21 10° WSW 18:55:21 73° NNW 18:58:37 15° ENE
H-2A R/B 2.8 18:51:14 10° SE 18:56:00 33° ENE 19:00:50 10° N
STARLINK-65 3.7 18:52:58 10° WSW 18:57:00 72° NNW 19:00:11 16° ENE
STARLINK-1026 3.1 18:54:41 10° WSW 18:58:00 77° NNW 19:00:20 18° ENE
ATLAS 3B R/B 4.3 18:53:12 10° NW 18:58:06 21° N 19:03:04 10° NE
STARLINK-53 3.7 18:54:43 10° WSW 18:58:44 69° NNW 19:01:52 16° ENE
STARLINK-1032 4.0 18:55:39 10° SW 18:59:37 46° SE 19:02:16 19° ENE
STARLINK-1013 3.1 18:56:20 10° WSW 18:59:38 76° NNW 19:01:55 19° ENE
Cosmos 2297 Rocket 4.0 18:57:03 10° N 19:00:06 14° NNE 19:02:16 12° ENE
Sich 1 4.2 18:56:54 10° SSW 19:01:01 46° WNW 19:05:09 10° N
STARLINK-1009 3.1 18:58:00 10° WSW 19:01:18 74° NNW 19:03:31 19° ENE
Cosmos 724 4.3 18:55:36 10° NW 19:01:26 88° NE 19:07:16 10° SE
STARLINK-43 4.0 18:59:12 10° WNW 19:02:45 42° N 19:04:52 21° ENE
STARLINK-1015 3.1 18:59:41 10° WSW 19:03:00 72° NNW 19:05:09 20° ENE
CSL-04 Debris 4.4 18:58:01 10° S 19:03:28 77° WSW 19:09:00 10° NNW
NOSS 2-3 (C) 3.8 18:59:48 10° SSW 19:04:02 54° ESE 19:09:00 10° NE
STARLINK-1011 3.9 19:00:34 10° SW 19:04:34 49° SE 19:07:02 21° ENE
Lacrosse 5 rocket 3.1 19:02:21 10° WNW 19:06:12 27° N 19:09:19 14° NE
Okean 1 4.2 19:03:16 10° NNE 19:06:45 27° ENE 19:08:21 21° ESE
Lacrosse 4 Rocket 3.5 19:03:17 10° W 19:06:52 26° NW 19:10:34 10° NNE
Meteor 1-27 Rocket 4.1 19:03:30 10° NNW 19:09:00 66° W 19:14:34 10° S
STARLINK-1036 3.8 19:05:30 10° SW 19:09:31 53° SE 19:11:49 23° ENE
Cosmos 1470 Rocket 3.4 19:05:50 10° S 19:10:10 73° E 19:14:34 10° NNE
Cosmos 2242 Rocket 3.6 19:06:40 10° N 19:11:12 66° E 19:15:43 10° SSE
COSMO-SKYMED 1 4.0 19:10:20 10° N 19:14:25 41° WNW 19:18:29 10° SW
STARLINK-1044 3.7 19:10:25 10° SW 19:14:28 57° SSE 19:16:36 26° ENE
Resurs 01 Rocket 3.5 19:15:30 14° NE 19:15:30 14° NE 19:17:17 10° NNE
Cosmos 1862 Rocket 3.9 19:11:15 10° NNW 19:15:34 67° W 19:19:52 10° S
Cosmos 1943 Rocket 2.5 19:10:29 10° SW 19:16:02 69° WNW 19:21:36 10° NNE
Cosmos 1939 Rocket 3.8 19:13:21 10° S 19:17:23 52° W 19:21:28 10° NNW
Gbstr 26 Del rocket 4.2 19:14:04 10° S 19:17:29 25° SE 19:18:23 23° ESE
STARLINK-80 4.2 19:14:44 10° WNW 19:18:23 40° N 19:20:03 25° ENE
Cosmos 2227 Rocket 3.8 19:15:15 10° N 19:18:45 16° NE 19:20:08 15° NE
CZ-4 R/B 3.4 19:16:49 10° SSW 19:20:36 33° W 19:24:24 10° NNW
STARLINK-1031 3.5 19:16:37 10° SW 19:20:38 68° SSE 19:22:30 30° ENE
Cosmos 1340 2.7 19:19:21 10° SSW 19:23:07 82° WNW 19:26:55 10° N
STARLINK-1037 3.6 19:20:16 10° SW 19:24:22 66° SSE 19:26:07 32° ENE
CZ-2C R/B 3.5 19:19:46 10° SE 19:25:19 49° ENE 19:30:47 10° N
Cosmos 405 3.1 19:25:10 10° N 19:28:38 50° ENE 19:29:30 39° ESE
STARLINK-24 4.0 19:24:59 10° W 19:28:56 53° NNW 19:30:47 28° NE
STARLINK-1059 3.5 19:25:17 10° SW 19:29:24 70° SSE 19:30:58 36° ENE
STARLINK-1023 3.5 19:27:05 10° W 19:30:11 50° NNW 19:31:04 36° NNE
Cosmos 921 Rocket 4.4 19:26:41 10° SW 19:30:58 42° WNW 19:35:17 10° N
NOSS 3-1 (C) 4.0 19:26:29 10° WSW 19:32:01 57° NW 19:38:33 10° NE
FREGAT/IRIS 3.5 19:33:05 31° NNE 19:33:05 31° NNE 19:34:44 10° N
Cosmos 1703 Rocket 3.5 19:27:59 10° N 19:32:27 69° E 19:36:54 10° SSE
STARLINK-58 4.0 19:29:42 10° W 19:33:08 43° NNW 19:34:19 31° NE
Okean 1-7 3.0 19:28:53 10° N 19:33:09 59° ENE 19:36:19 18° SSE
Cosmos 1891 Rocket 4.5 19:27:59 10° S 19:34:01 60° E 19:40:14 10° NNE
COSMOS 2487 2.2 19:30:44 10° NNW 19:34:13 76° ENE 19:35:18 41° SE
STARLINK-1057 3.5 19:30:15 10° SW 19:34:22 75° SSE 19:35:44 40° ENE
STARLINK-62 4.1 19:31:25 10° W 19:34:49 43° NNW 19:35:55 32° NE
STARLINK-34 4.1 19:33:03 10° W 19:36:28 42° NNW 19:37:30 33° NNE
Meteor 1-19 Rocket 4.3 19:30:51 10° N 19:36:34 54° ENE 19:40:39 18° SE
STARLINK-81 4.1 19:34:20 10° W 19:38:16 51° NNW 19:39:45 33° NE
SPOT 3 Rocket 3.8 19:36:24 30° ESE 19:38:28 45° ENE 19:43:24 10° N
Cosmos 44 Rocket 3.5 19:34:37 10° NNW 19:39:15 50° NE 19:40:28 39° E
STARLINK-1034 3.5 19:35:12 10° WSW 19:39:20 80° SSE 19:40:31 45° ENE
STARLINK-54 4.2 19:36:13 10° W 19:40:10 49° NNW 19:41:32 33° NE
Cosmos 468 Rocket 4.3 19:35:22 10° S 19:40:21 44° ESE 19:44:32 15° NE
Meteor 2-4 Rocket 4.3 19:35:01 10° N 19:40:32 40° ENE 19:42:12 33° ESE
STARLINK-77 4.1 19:37:41 10° W 19:41:37 50° NNW 19:42:57 35° NE
Cosmos 2219 4.2 19:36:59 10° NNW 19:41:55 28° NE 19:42:43 27° ENE
Cosmos 1869 Rocket 3.8 19:38:19 10° SSE 19:42:46 44° E 19:46:41 10° NNE
STARLINK-33 4.1 19:39:32 10° WNW 19:42:35 35° N 19:43:00 33° NNE
STARLINK-25 4.1 19:39:21 10° W 19:43:16 50° NNW 19:44:32 35° NE
BREEZE-M DEB (TANK) 4.0 19:41:09 10° W 19:44:05 50° SSW 19:47:33 23° SE
SJ 16-02 1.3 19:39:44 10° NNW 19:44:08 60° ENE 19:45:10 46° ESE
USA 186 4.1 19:46:29 12° N 19:46:29 12° N 19:46:42 10° N
STARLINK-1068 3.5 19:40:09 10° WSW 19:44:18 85° SSE 19:45:18 51° ENE
STARLINK-66 4.1 19:41:34 10° WNW 19:44:37 35° N 19:44:57 34° N
Meteor 1-25 Rocket 4.1 19:39:01 10° S 19:44:43 81° E 19:50:22 10° NNE
STARLINK-55 4.1 19:41:46 10° WNW 19:44:49 35° N 19:45:07 34° N
STARLINK-71 4.2 19:41:16 10° W 19:45:11 48° NNW 19:46:21 36° NE
STARLINK-1007 3.7 19:42:58 10° W 19:46:04 43° NNW 19:46:21 42° N
STARLINK-28 4.1 19:43:27 10° WNW 19:46:30 34° N 19:46:43 34° N
STARLINK-79 4.2 19:42:39 10° W 19:46:34 49° NNW 19:47:42 37° NE
ADEOS Rocket 3.8 19:38:51 10° NNE 19:46:36 74° WNW 19:54:16 10° SSW
STARLINK-78 4.2 19:44:23 10° W 19:48:17 48° NNW 19:49:20 38° NNE
Cosmos 1656 Rocket 3.5 19:43:22 10° SSW 19:48:52 86° ESE 19:54:31 10° NNE
Cosmos 1898 Rocket 3.3 19:44:31 10° NNW 19:49:44 75° ENE 19:52:08 32° SE
STARLINK-57 4.2 19:46:09 10° W 19:50:03 47° NNW 19:51:01 38° NNE
IRS-1A Rocket 4.4 19:45:54 10° S 19:51:23 72° WSW 19:56:55 10° NNW
STARLINK-49 4.2 19:47:39 10° W 19:51:34 47° NNW 19:52:28 39° NNE
SJ-6B 2.5 19:52:31 72° E 19:52:34 73° ENE 19:56:21 10° N
STARLINK-27 4.2 19:49:20 10° W 19:53:14 47° NNW 19:54:04 40° NNE
Cosmos 489 Rocket 4.4 19:47:17 10° S 19:53:33 65° ESE 19:59:48 10° NNE
STARLINK-1060 3.5 19:50:07 10° WSW 19:54:15 86° NNW 19:54:51 64° ENE
STARLINK-74 4.2 19:51:01 10° W 19:54:55 47° NNW 19:55:40 41° NNE
STARLINK-42 4.2 19:52:13 10° WNW 19:55:05 34° N 19:55:05 34° N
STARLINK-39 4.2 19:52:40 10° W 19:56:34 46° N 19:57:15 41° NNE
STARLINK-31 4.2 19:54:22 10° W 19:58:15 46° N 19:58:51 42° NNE
Nadezhda 4 Rocket 3.9 19:52:46 10° N 19:59:05 71° ENE 20:03:48 19° SSE
STARLINK-1030 3.5 19:55:07 10° WSW 19:59:16 82° NNW 19:59:40 71° NE
Cosmos 1464 Rocket 4.0 19:53:00 10° S 19:59:21 88° E 20:05:48 10° N
STARLINK-1010 4.1 19:56:32 10° W 19:59:22 39° NNW 19:59:22 39° NNW
STARLINK-69 4.2 19:56:13 10° W 20:00:06 45° N 20:00:36 42° NNE
STARLINK-21 4.2 19:57:42 10° W 20:01:35 45° N 20:02:02 43° NNE
Cosmos 2369 Rocket 3.4 19:57:01 10° SW 20:02:23 42° NW 20:07:48 10° NNE
STARLINK-45 4.3 19:59:37 10° W 20:03:29 44° N 20:03:51 42° N
STARLINK-1020 3.5 20:00:05 10° WSW 20:04:13 78° NNW 20:04:25 75° NNE
STARLINK-70 4.3 20:01:10 10° W 20:05:02 44° N 20:05:21 43° N
STARLINK-1047 3.6 20:00:59 10° WSW 20:05:10 76° NNW 20:05:23 73° N
NOSS 2-3 (E) 4.4 20:01:03 10° WSW 20:05:24 55° NW 20:08:40 22° NNE
Cosmos 2026 Rocket 4.5 19:59:57 10° N 20:05:17 38° ENE 20:05:17 38° ENE
STARLINK-76 4.3 20:02:42 10° W 20:06:35 44° N 20:06:49 43° N
Cosmos 1763 Rocket 3.4 20:02:19 10° S 20:07:24 60° ESE 20:07:24 60° ESE
STARLINK-23 4.3 20:04:23 10° W 20:08:15 44° N 20:08:25 43° N
USA 234 3.7 20:06:31 35° ENE 20:08:48 49° NNE 20:15:03 10° WNW
STARLINK-1052 3.6 20:05:06 10° WSW 20:09:14 74° NNW 20:09:14 74° NNW
STARLINK-32 4.3 20:06:03 10° W 20:09:55 43° N 20:10:00 43° N
BREEZE-M DEB (TANK) 4.1 20:08:42 10° WNW 20:10:16 38° W 20:10:16 38° W
STARLINK-40 4.3 20:07:41 10° W 20:11:34 43° N 20:11:35 43° N
MetOp-A 4.0 20:11:17 60° ESE 20:12:02 68° ENE 20:17:23 10° N
Cosmos 2221 Rocket 4.2 20:08:22 10° N 20:11:44 45° NNE 20:11:44 45° NNE
STARLINK-44 4.4 20:09:22 10° W 20:13:10 43° N 20:13:10 43° N
Cosmos 858 Rocket 4.4 20:09:10 10° NNW 20:14:27 88° ENE 20:15:23 61° SSE
STARLINK-37 4.4 20:11:10 10° WNW 20:14:53 42° NNW 20:14:53 42° NNW
NOSS 3-2 (A) 4.3 20:08:48 10° NW 20:15:48 49° NE 20:17:38 42° ENE
STARLINK-36 4.4 20:12:42 10° W 20:16:21 42° NNW 20:16:21 42° NNW
Timation 2 Rocket 4.2 20:11:35 10° NNW 20:18:30 83° WSW 20:21:36 36° SSE
STARLINK-1033 4.0 20:15:05 10° WSW 20:18:47 62° WNW 20:18:47 62° WNW
Cosmos 2034 Rocket 3.8 20:13:06 10° S 20:19:16 89° E 20:25:28 10° N
STARLINK-1035 4.0 20:16:08 10° WSW 20:20:06 62° NW 20:20:06 62° NW
Ariane Rocket 4.5 20:16:50 10° SSW 20:21:31 36° W 20:26:14 10° NNW
ARGOS 3.6 20:20:43 15° S 20:25:06 59° W 20:30:30 10° NNW
BREEZE-M DEB (TANK) 3.7 20:03:32 10° W 20:26:22 83° N 20:27:47 57° E
STARLINK-1024 4.4 20:25:04 10° W 20:28:21 49° WNW 20:28:21 49° WNW
NOSS 3-1 (A) 4.4 20:24:34 10° WSW 20:30:03 42° NW 20:35:03 16° NNE
STARLINK-1027 4.5 20:26:51 10° W 20:30:22 49° WNW 20:30:22 49° WNW
H-2A R/B 3.3 20:30:13 10° SSW 20:35:17 42° W 20:40:28 10° NNW
ARGOS Delta rocket 4.3 20:37:13 50° WSW 20:37:22 51° W 20:41:43 10° NNW
CENTAUR R/B 3.6 20:32:52 10° NW 20:40:11 44° NNE 20:41:17 42° NE
Lacrosse 5 3.8 20:36:21 10° SSW 20:37:46 19° SSW 20:37:46 19° SSW
Cosmos 1092 Rocket 3.9 20:36:19 10° N 20:42:42 88° W 20:43:31 70° S
Cosmos 1937 Rocket 4.0 20:39:54 10° NNW 20:45:02 54° WSW 20:45:29 52° SW
Cosmos 2297 Rocket 2.9 20:39:57 10° NNW 20:44:06 43° N 20:44:06 43° N
Lacrosse 5 rocket 3.1 20:42:02 10° NW 20:44:58 31° NNW 20:44:58 31° NNW
Resurs 01 Rocket 3.3 20:53:04 28° NNW 20:53:04 28° NNW 20:55:11 10° NNW
ATLAS 3B R/B 3.6 20:44:56 10° NW 20:50:49 32° NNE 20:50:49 32° NNE
Cosmos 2195 Rocket 4.5 20:52:42 10° N 20:58:25 75° NW 20:58:25 75° NW
Cosmos 2227 Rocket 3.2 20:58:20 10° NNW 21:01:57 39° N 21:01:57 39° N
USA 238 DEB 3.8 21:07:16 10° NW 21:13:47 75° NNW 21:13:47 75° NNW
USA 238 3.8 21:07:22 10° NW 21:13:52 75° NNW 21:13:52 75° NNW
SJ 16-02 4.0 21:19:31 10° WNW 21:22:12 16° W 21:22:12 16° W
Cosmos 2219 4.3 21:20:49 10° NNW 21:24:39 41° NW 21:24:39 41° NW
USA 234 4.1 21:53:52 45° WNW 21:53:52 45° WNW 21:58:08 10° NW
CENTAUR R/B 4.0 22:23:34 10° NW 22:28:29 43° NW 22:28:29 43° NW
ATLAS 3B R/B 4.5 22:35:35 10° NW 22:38:05 25° NW 22:38:05 25° NW
